User: anonymous   Login
Location: Hokitika
(42.7170°S, 170.9670°E)
Time: 05:08:30
(UTC+13:00)
Language:

Terra - Orbit

View from above orbital plane
View from above orbital plane
View from above satellite
View from above satellite

Ground track
Ground track

The orbit data is extracted from the following two-line orbital elements,

1 25994U 99068A   19287.44066494  .00000072  00000-0  26042-4 0  9992
2 25994  98.1966   0.1750 0001464  92.3940 267.7430 14.57115395 54341
Epoch (UTC): 14 October 2019 10:34:33
Eccentricity: 0.0001464
inclination: 98.1966°
perigee height: 701 km
apogee height: 703 km
right ascension of ascending node: 0.1750°
argument of perigee: 92.3940°
revolutions per day: 14.57115395
mean anomaly at epoch: 267.7430°
orbit number at epoch: 5434

The dashed part of the orbit path shows where the satellite is in the earth's shadow,  

DLR